Weather History for Macau International, Macao

Change the Weather History Date:

Friday, March 1, 2013

  Actual Average Record
Temperature  
Mean Temperature 66 °F -  
Max Temperature 68 °F 67 °F 75 °F (1997)
Min Temperature 64 °F 61 °F 46 °F (2006)
Cooling Degree Days 1    
Growing Degree Days 16 (Base 50)    
Moisture  
Dew Point 65 °F    
Average Humidity 92    
Maximum Humidity 99    
Minimum Humidity 88    
Precipitation  
Precipitation 0.00 in - - ()
Sea Level Pressure  
Sea Level Pressure 29.92 in    
Wind  
Wind Speed 10 mph ()    
Max Wind Speed 23 mph    
Max Gust Speed -    
Visibility 2.8 miles    
Events Fog , Rain    
Averages and records for this station are not official NWS values.
T = Trace of Precipitation, MM = Missing Value Source: Averaged Metar Reports

Daily Weather History Graph

Daily Weather History Graph

Search for Another Location

Airport:

Trip Planner

Search our weather history database for the weather conditions in past years. The results will help you decide how hot, cold, wet, or windy it might be!

Date:

Astronomy

Mar. 01, 2013 Rise Set
Actual Time 6:47 AM CST 6:29 PM CST
Civil Twilight 6:24 AM CST 6:51 PM CST
Nautical Twilight 5:58 AM CST 7:17 PM CST
Astronomical Twilight 5:32 AM CST 7:43 PM CST
Moon 9:49 PM CST (3/1) 8:43 AM CST (3/1)
Length of Visible Light 12h 27m
Length of Day
11h 42m
Waning Gibbous, 88% of the Moon is Illuminated
Mar 1
Waning Gibbous
Mar 5
Last Quarter
Mar 12
New
Mar 20
First Quarter
Mar 27
Full

Hourly Weather History & Observations

Time (CST) Temp. Dew Point Humidity Pressure Visibility Wind Dir Wind Speed Gust Speed Precip Events Conditions
12:00 AM 66.2 °F 62.6 °F 88% 29.89 in 5.0 mi ESE 13.8 mph - N/A   Mostly Cloudy
12:30 AM 66.2 °F 64.4 °F 94% 29.89 in 4.3 mi ESE 16.1 mph - N/A   Mostly Cloudy
1:00 AM 66.2 °F 64.4 °F 94% 29.89 in 4.3 mi ESE 23.0 mph - N/A   Mostly Cloudy
1:30 AM 66.2 °F 64.4 °F 94% 29.89 in 4.3 mi ESE 19.6 mph - N/A   Mostly Cloudy
2:00 AM 65 °F 65 °F 98% 29.91 in 1 mi SE 4.6 mph - -   Mist
2:00 AM 66.2 °F 64.4 °F 94% 29.89 in 2.8 mi ESE 20.7 mph - N/A   Mostly Cloudy
2:30 AM 66.2 °F 64.4 °F 94% 29.89 in 2.8 mi East 15.0 mph - N/A   Mostly Cloudy
3:00 AM 68.0 °F 64.4 °F 88% 29.89 in 3.7 mi East 12.7 mph - N/A   Mostly Cloudy
3:30 AM 68.0 °F 64.4 °F 88% 29.89 in 3.7 mi East 12.7 mph - N/A   Mostly Cloudy
4:00 AM 66.2 °F 64.4 °F 94% 29.89 in 4.3 mi ENE 10.4 mph - N/A   Mostly Cloudy
4:30 AM 66.2 °F 64.4 °F 94% 29.89 in 4.3 mi ENE 5.8 mph - N/A   Mostly Cloudy
5:00 AM 68.0 °F 64.4 °F 88% 29.89 in 3.7 mi Variable 2.3 mph - N/A Rain Light Rain
5:30 AM 68.0 °F 64.4 °F 88% 29.89 in 3.7 mi ESE 12.7 mph - N/A Rain Light Rain
6:00 AM 66.2 °F 64.4 °F 94% 29.89 in 5.0 mi East 10.4 mph - N/A   Mostly Cloudy
6:30 AM 66.2 °F 64.4 °F 94% 29.89 in 5.0 mi ESE 15.0 mph - N/A   Mostly Cloudy
7:00 AM 66.2 °F 64.4 °F 94% 29.92 in 3.7 mi ESE 17.3 mph - N/A   Mostly Cloudy
7:30 AM 66.2 °F 62.6 °F 88% 29.92 in 3.1 mi ESE 18.4 mph - N/A   Mostly Cloudy
8:00 AM 64 °F 64 °F 99% 29.96 in 1 mi SE 5.8 mph - -   Mist
8:00 AM 66.2 °F 64.4 °F 94% 29.95 in 3.1 mi ESE 17.3 mph - N/A   Mostly Cloudy
8:30 AM 66.2 °F 64.4 °F 94% 29.95 in 3.1 mi East 13.8 mph - N/A   Mostly Cloudy
9:00 AM 66.2 °F 64.4 °F 94% 29.98 in 3.1 mi East 12.7 mph - N/A   Mostly Cloudy
9:30 AM 66.2 °F 64.4 °F 94% 29.98 in 3.1 mi East 13.8 mph - N/A   Mostly Cloudy
10:00 AM 68.0 °F 64.4 °F 88% 29.98 in 3.1 mi ESE 17.3 mph - N/A   Mostly Cloudy
10:30 AM 68.0 °F 64.4 °F 88% 29.98 in 3.1 mi ESE 16.1 mph - N/A   Mostly Cloudy
11:00 AM 66 °F 65 °F 95% 30.00 in 1 mi SE 6.9 mph - -   Mist
11:00 AM 68.0 °F 64.4 °F 88% 29.98 in 3.1 mi ESE 13.8 mph - N/A   Mostly Cloudy
11:30 AM 68.0 °F 64.4 °F 88% 29.98 in - ESE 11.5 mph - N/A   Mostly Cloudy
12:00 PM 68.0 °F 64.4 °F 88% 29.95 in 2.8 mi SE 10.4 mph - N/A   Mostly Cloudy
12:30 PM 68.0 °F 64.4 °F 88% 29.92 in 2.5 mi ESE 13.8 mph - N/A   Mostly Cloudy
1:00 PM 68.0 °F 64.4 °F 88% 29.92 in 2.5 mi SE 10.4 mph - N/A   Mostly Cloudy
1:30 PM 68.0 °F 64.4 °F 88% 29.92 in 2.2 mi Variable 1.2 mph - N/A   Mostly Cloudy
2:00 PM 67 °F 66 °F 97% 29.93 in 1 mi SE 5.8 mph - -   Mist
2:00 PM 68.0 °F 66.2 °F 94% 29.92 in 2.2 mi SE 4.6 mph - N/A   Mostly Cloudy
2:30 PM 69.8 °F 66.2 °F 88% 29.89 in - SE 8.1 mph - N/A   Mostly Cloudy
3:00 PM 69.8 °F 66.2 °F 88% 29.89 in - SSE 10.4 mph - N/A   Mostly Cloudy
3:30 PM 68.0 °F 64.4 °F 88% 29.89 in - ESE 3.5 mph - N/A   Mostly Cloudy
4:00 PM 68.0 °F 64.4 °F 88% 29.89 in 2.2 mi ESE 8.1 mph - N/A   Mostly Cloudy
4:30 PM 68.0 °F 66.2 °F 94% 29.89 in - SE 9.2 mph - N/A   Mostly Cloudy
5:00 PM 68 °F 67 °F 95% 29.91 in 2 mi SSE 4.6 mph - -   Mist
5:00 PM 68.0 °F 66.2 °F 94% 29.89 in 2.5 mi SSE 8.1 mph - N/A   Mostly Cloudy
5:30 PM 68.0 °F 66.2 °F 94% 29.89 in - SE 5.8 mph - N/A   Mostly Cloudy
6:00 PM 68.0 °F 64.4 °F 88% 29.89 in - SE 6.9 mph - N/A   Mostly Cloudy
6:30 PM 68.0 °F 66.2 °F 94% 29.89 in - Variable 1.2 mph - N/A   Mostly Cloudy
7:00 PM 68.0 °F 66.2 °F 94% 29.89 in 3.1 mi Variable 1.2 mph - N/A   Mostly Cloudy
7:30 PM 68.0 °F 66.2 °F 94% 29.92 in 2.5 mi ESE 3.5 mph - N/A   Mostly Cloudy
8:00 PM 67 °F 67 °F 99% 29.94 in 1 mi SSE 4.6 mph - -   Mist
8:00 PM 68.0 °F 66.2 °F 94% 29.92 in 2.5 mi ESE 3.5 mph - N/A   Mostly Cloudy
8:30 PM 68.0 °F 66.2 °F 94% 29.92 in 2.5 mi SE 4.6 mph - N/A   Mostly Cloudy
9:00 PM 68.0 °F 66.2 °F 94% 29.95 in 2.5 mi SSE 3.5 mph - N/A   Mostly Cloudy
9:30 PM 68.0 °F 66.2 °F 94% 29.95 in 1.9 mi South 5.8 mph - N/A   Mostly Cloudy
10:00 PM 68.0 °F 66.2 °F 94% 29.95 in 1.9 mi Variable 2.3 mph - N/A   Mostly Cloudy
10:30 PM 68.0 °F 66.2 °F 94% 29.98 in 1.9 mi SSE 3.5 mph - N/A   Mostly Cloudy
11:00 PM 67 °F 67 °F 98% 29.99 in 1 mi SSW 3.5 mph - - Fog Fog
11:00 PM 68.0 °F 66.2 °F 94% 29.98 in 1.9 mi ESE 9.2 mph - N/A   Mostly Cloudy
11:30 PM 68.0 °F 66.2 °F 94% 29.98 in 1.9 mi ESE 6.9 mph - N/A   Mostly Cloudy